Harbor Springs, MI

12:48 AM EDT on April 24, 2017 (GMT -0400)
Harbor Springs

Weather History for KMGN - July, 2013

Change the Weather History Date:

Thursday, July 25, 2013

  Actual Average (KPLN) Record (KPLN)
Temperature  
Mean Temperature 62 °F -  
Max Temperature 77 °F 79 °F 93 °F (1949)
Min Temperature 47 °F 55 °F 36 °F (2004)
Degree Days  
Heating Degree Days 3    
Growing Degree Days 12 (Base 50)    
Moisture  
Dew Point 54 °F    
Average Humidity 70    
Maximum Humidity 95    
Minimum Humidity 46    
Precipitation  
Precipitation 0.00 in - - ()
Sea Level Pressure  
Sea Level Pressure 30.04 in    
Wind  
Wind Speed 3 mph (WSW)    
Max Wind Speed 9 mph    
Max Gust Speed -    
Visibility 10 miles    
Events      
Averages and records for this station are not official NWS values.
T = Trace of Precipitation, MM = Missing Value Source: NWS Daily Summary

Daily Weather History Graph

Daily Weather History Graph

Search for Another Location

Airport or City:

Trip Planner

Search our weather history database for the weather conditions in past years. The results will help you decide how hot, cold, wet, or windy it might be!

Date:

Astronomy

Jul. 25, 2013 Rise Set
Actual Time 6:16 AM EDT 9:15 PM EDT
Civil Twilight 5:41 AM EDT 9:50 PM EDT
Nautical Twilight 4:56 AM EDT 10:35 PM EDT
Astronomical Twilight 4:02 AM EDT 11:28 PM EDT
Moon 10:40 PM EDT (7/25) 9:57 AM EDT (7/25)
Length of Visible Light 16h 09m
Length of Day
14h 59m
Waning Gibbous, 88% of the Moon is Illuminated
Jul 25
Waning Gibbous
Jul 29
Last Quarter
Aug 6
New
Aug 14
First Quarter
Aug 20
Full

Hourly Weather History & Observations

Time (EDT) Temp. Dew Point Humidity Pressure Visibility Wind Dir Wind Speed Gust Speed Precip Events Conditions
12:15 AM 52.7 °F 49.5 °F 89% 30.04 in 10.0 mi NE 5.8 mph - N/A   Clear
12:35 AM 53.6 °F 50.5 °F 89% 30.05 in 10.0 mi North 3.5 mph - N/A   Clear
12:54 AM 52.7 °F 49.8 °F 90% 30.06 in 10.0 mi Calm Calm - N/A   Clear
1:15 AM 52.7 °F 50.0 °F 91% 30.05 in 10.0 mi North 4.6 mph - N/A   Clear
1:35 AM 52.7 °F 49.5 °F 89% 30.05 in 10.0 mi NNE 3.5 mph - N/A   Clear
1:54 AM 52.7 °F 49.1 °F 88% 30.05 in 10.0 mi ENE 4.6 mph - N/A   Clear
2:15 AM 52.7 °F 50.2 °F 91% 30.05 in 10.0 mi NNW 4.6 mph - N/A   Clear
2:35 AM 50.7 °F 48.4 °F 92% 30.05 in 10.0 mi NE 4.6 mph - N/A   Clear
2:54 AM 50.4 °F 48.2 °F 92% 30.04 in 10.0 mi ENE 4.6 mph - N/A   Clear
3:15 AM 50.2 °F 48.2 °F 93% 30.04 in 10.0 mi Calm Calm - N/A   Clear
3:35 AM 52.5 °F 50.7 °F 94% 30.04 in 10.0 mi NE 3.5 mph - N/A   Clear
3:54 AM 50.5 °F 49.1 °F 95% 30.04 in 10.0 mi Calm Calm - N/A   Clear
4:15 AM 52.7 °F 51.3 °F 95% 30.04 in 10.0 mi NE 3.5 mph - N/A   Clear
4:34 AM 52.7 °F 51.1 °F 94% 30.04 in 10.0 mi Calm Calm - N/A   Clear
4:55 AM 50.7 °F 48.9 °F 94% 30.04 in 10.0 mi Calm Calm - N/A   Clear
5:15 AM 50.2 °F 48.4 °F 94% 30.04 in 10.0 mi Calm Calm - N/A   Clear
5:34 AM 49.1 °F 47.1 °F 93% 30.05 in 10.0 mi Calm Calm - N/A   Clear
5:55 AM 48.2 °F 46.4 °F 93% 30.05 in 10.0 mi North 3.5 mph - N/A   Clear
6:14 AM 47.7 °F 46.0 °F 94% 30.06 in 10.0 mi Calm Calm - N/A   Clear
6:35 AM 48.6 °F 46.6 °F 93% 30.06 in 10.0 mi Calm Calm - N/A   Clear
6:55 AM 48.2 °F 46.4 °F 93% 30.06 in 10.0 mi Calm Calm - N/A   Clear
7:14 AM 50.4 °F 48.2 °F 92% 30.06 in 10.0 mi Calm Calm - N/A   Scattered Clouds
7:35 AM 53.8 °F 50.9 °F 90% 30.06 in 10.0 mi Calm Calm - N/A   Mostly Cloudy
7:55 AM 55.4 °F 51.4 °F 87% 30.06 in 10.0 mi Calm Calm - N/A   Mostly Cloudy
8:14 AM 56.8 °F 51.8 °F 83% 30.07 in 10.0 mi Calm Calm - N/A   Overcast
8:35 AM 57.7 °F 52.7 °F 83% 30.07 in 10.0 mi Calm Calm - N/A   Overcast
8:55 AM - - N/A% - - North - - N/A   Unknown
9:15 AM - - N/A% - - North - - N/A   Unknown
9:35 AM - - N/A% - - North - - N/A   Unknown
9:55 AM 65.8 °F 55.4 °F 69% 30.08 in 10.0 mi SSW 3.5 mph - N/A   Clear
10:15 AM 67.5 °F 55.6 °F 66% 30.08 in 10.0 mi SW 4.6 mph - N/A   Scattered Clouds
10:35 AM 69.4 °F 56.7 °F 64% 30.08 in 10.0 mi WSW 3.5 mph - N/A   Scattered Clouds
10:55 AM 70.0 °F 54.7 °F 58% 30.08 in 10.0 mi WSW 3.5 mph - N/A   Clear
11:15 AM 71.8 °F 51.3 °F 48% 30.08 in 10.0 mi SW 6.9 mph - N/A   Scattered Clouds
11:35 AM 72.9 °F 50.7 °F 46% 30.08 in 10.0 mi SW 5.8 mph - N/A   Scattered Clouds
11:55 AM 75.2 °F 53.1 °F 46% 30.08 in 10.0 mi WSW 4.6 mph - N/A   Clear
12:15 PM 75.2 °F 53.4 °F 47% 30.08 in 10.0 mi SW 3.5 mph - N/A   Clear
12:35 PM 75.2 °F 54.0 °F 47% 30.08 in 10.0 mi SSW 4.6 mph - N/A   Clear
12:55 PM 75.2 °F 54.0 °F 47% 30.08 in 10.0 mi WSW 5.8 mph - N/A   Clear
1:15 PM 75.2 °F 54.0 °F 47% 30.08 in 10.0 mi WSW 6.9 mph - N/A   Clear
1:35 PM 75.2 °F 54.3 °F 48% 30.07 in 10.0 mi WSW 5.8 mph - N/A   Clear
1:55 PM 75.2 °F 54.3 °F 48% 30.06 in 10.0 mi SW 6.9 mph - N/A   Clear
2:15 PM 75.2 °F 55.4 °F 50% 30.06 in 10.0 mi WSW 8.1 mph - N/A   Clear
2:35 PM 75.2 °F 54.1 °F 48% 30.05 in 10.0 mi WSW 5.8 mph - N/A   Clear
2:55 PM 75.2 °F 54.1 °F 48% 30.04 in 10.0 mi SW 5.8 mph - N/A   Clear
3:15 PM 75.6 °F 55.4 °F 49% 30.04 in 10.0 mi WSW 4.6 mph - N/A   Clear
3:35 PM 75.9 °F 54.9 °F 48% 30.04 in 10.0 mi WSW 3.5 mph - N/A   Clear
3:55 PM 77.2 °F 57.6 °F 51% 30.04 in 10.0 mi WSW 6.9 mph - N/A   Clear
4:15 PM 75.7 °F 57.7 °F 53% 30.04 in 10.0 mi WSW 6.9 mph - N/A   Clear
4:34 PM 77.5 °F 57.4 °F 50% 30.04 in 10.0 mi WSW 9.2 mph - N/A   Clear
4:55 PM 77.5 °F 56.5 °F 48% 30.03 in 10.0 mi WSW 6.9 mph - N/A   Clear
5:15 PM 76.8 °F 57.4 °F 51% 30.02 in 10.0 mi SW 5.8 mph - N/A   Clear
5:35 PM 76.6 °F 58.3 °F 53% 30.02 in 10.0 mi WSW 8.1 mph - N/A   Clear
5:55 PM 75.2 °F 57.6 °F 54% 30.02 in 10.0 mi West 4.6 mph - N/A   Clear
6:15 PM 75.2 °F 57.4 °F 54% 30.02 in 10.0 mi WSW 4.6 mph - N/A   Clear
6:35 PM 75.2 °F 57.7 °F 54% 30.01 in 10.0 mi SW 3.5 mph - N/A   Clear
6:55 PM 75.2 °F 58.8 °F 57% 30.01 in 10.0 mi WSW 4.6 mph - N/A   Clear
7:15 PM 75.2 °F 59.5 °F 58% 30.00 in 10.0 mi WSW 3.5 mph - N/A   Clear
7:35 PM 75.2 °F 57.9 °F 55% 30.00 in 10.0 mi Calm Calm - N/A   Clear
7:55 PM 75.2 °F 58.3 °F 56% 30.00 in 10.0 mi Calm Calm - N/A   Clear
8:14 PM 72.3 °F 59.5 °F 64% 30.00 in 10.0 mi Calm Calm - N/A   Clear
8:35 PM 70.0 °F 59.9 °F 70% 30.00 in 10.0 mi Calm Calm - N/A   Clear
8:55 PM 70.0 °F 59.2 °F 68% 30.01 in 10.0 mi Calm Calm - N/A   Clear
9:14 PM 70.0 °F 59.4 °F 69% 29.99 in 10.0 mi Calm Calm - N/A   Clear
9:35 PM 69.8 °F 60.4 °F 72% 29.99 in 10.0 mi ESE 3.5 mph - N/A   Clear
9:55 PM 70.0 °F 60.1 °F 71% 29.99 in 10.0 mi Calm Calm - N/A   Clear
10:15 PM 67.5 °F 59.5 °F 76% 29.99 in 10.0 mi Calm Calm - N/A   Clear
10:35 PM 67.5 °F 59.0 °F 74% 29.99 in 10.0 mi NNE 3.5 mph - N/A   Clear
10:55 PM 66.9 °F 59.2 °F 76% 30.00 in 10.0 mi Calm Calm - N/A   Clear
11:15 PM 64.9 °F 58.1 °F 78% 30.00 in 10.0 mi Calm Calm - N/A   Clear
11:35 PM 65.5 °F 58.3 °F 77% 30.00 in 10.0 mi Calm Calm - N/A   Clear
11:55 PM 65.1 °F 58.5 °F 79% 30.00 in 10.0 mi Calm Calm - N/A   Mostly Cloudy